Погода в Талнахе

Россия / Красноярский край     69°29′32″N   88°23′25″E
темп.,
°C
ветер,
м/с
пор.,
м/с
влажн.,
%
обл.,
%
осадки,
мм/ч
давл.,
гПа
погр.,
м
11 апреля, вс
вс1101:00−1ю2499100 12.2 1024202
04:00−1зсз4799100 3.9 1025403
07:00−3зсз239895 4.4 1027139
10:00−4з229568 0.0 1029194
13:00−3юз238965 0.1 1029296
16:00−2ююв458952 0.0 1029292
19:00−5юв449465 0.0 102851
22:00−8вюв4598100 0.0 102661
12 апреля, пн
пн1201:00−3юв6994100 0.2 1022374
04:00−5юв71094100 0.2 1019331
07:00−6юв71394100 0.3 1014453
10:00−6юв81887100 0.0 1007706
13:00−4ююв121895100 1.1 10021086
16:00−3ююв101596100 2.1 999954
19:00−2з4898100 6.6 998515
22:00−5з51096100 2.6 1000542
13 апреля, вт
вт1301:00−6зюз3596100 3.3 1001166
04:00−7ююв3596100 1.1 999169
07:00−6юв4697100 3.3 997270
10:00−4зюз51097100 3.6 996715
13:00−3з6996100 5.8 996790
16:00−3з6996100 1.8 998758
19:00−4з599699 3.1 999715
22:00−5з51097100 1.6 1001480
14 апреля, ср
ср1401:00−5зсз61096100 4.7 1002690
04:00−8сз589599 1.4 1005321
07:00−9зсз239699 1.9 1007104
10:00−7зсз239298 0.8 1007369
13:00−7з4593100 1.5 1008576
16:00−10сз578999 0.6 1010493
19:00−15сз459670 0.6 101386
22:00−20ссз3310083 0.1 101423
15 апреля, чт
чт1501:00−23с2210090 0.1 10149
04:00−24вюв3398100 0.0 101318
07:00−20вюв4697100 0.1 1009173
10:00−16вюв71694100 0.2 1002519
13:00−13вюв81894100 3.3 992741
16:00−9юв91894100 3.8 9861088
19:00−8юв71394100 5.6 983731
22:00−11в3394100 0.3 98140